ENT31K EPGD-HEMA

Flight info

Callsign ENT31K
Flight time 4h 18m
Altitude 38000
Route MATC2C MATCH Q295 SOMVA MAVAS MALYK LUWIL BINKA LUXAL L730 KOSEX KOSE5T
Aircraft B38M/M-SDE1E2E3FGHIJ2J3J4J5M1RWXYZ/HB1

Departure

Time 2026-05-08 13:18
Airport Gdańsk Lech Wałęsa Airport (EPGD)

Arrival

Time 2026-05-08 17:36
Airport Marsa Alam International Airport (HEMA)
Time Latitude Longitude Altitude Speed Heading
2026-05-08 12:44 54.38062 18.46376 449 ft 0 kts 202°
2026-05-08 13:13 54.38061 18.46376 449 ft 0 kts 202°
2026-05-08 13:13 54.38040 18.46360 449 ft 4 kts 202°
2026-05-08 13:13 54.38017 18.46336 449 ft 4 kts 235°
2026-05-08 13:13 54.38030 18.46232 449 ft 12 kts 293°
2026-05-08 13:14 54.38076 18.46053 448 ft 20 kts 294°
2026-05-08 13:14 54.38128 18.45847 448 ft 8 kts 291°
2026-05-08 13:14 54.38149 18.45734 448 ft 11 kts 273°
2026-05-08 13:14 54.38113 18.45634 448 ft 10 kts 211°
2026-05-08 13:15 54.38051 18.45576 447 ft 9 kts 228°
2026-05-08 13:15 54.38044 18.45492 449 ft 6 kts 266°
2026-05-08 13:15 54.38069 18.45383 449 ft 11 kts 317°
2026-05-08 13:15 54.38126 18.45300 448 ft 10 kts 298°
2026-05-08 13:16 54.38103 18.45231 446 ft 8 kts 147°
2026-05-08 13:16 54.38093 18.45256 447 ft 0 kts 112°
2026-05-08 13:16 54.38090 18.45267 447 ft 8 kts 112°
2026-05-08 13:17 54.37963 18.45798 445 ft 74 kts 107°
2026-05-08 13:17 54.37746 18.46652 447 ft 84 kts 117°
2026-05-08 13:17 54.37450 18.47987 469 ft 149 kts 114°
2026-05-08 13:17 54.37227 18.48677 580 ft 164 kts 116°
2026-05-08 13:18 54.36866 18.49867 1094 ft 166 kts 109°
2026-05-08 13:18 54.36472 18.51663 1904 ft 165 kts 102°
2026-05-08 13:18 54.36091 18.53545 2428 ft 174 kts 105°
2026-05-08 13:18 54.35629 18.55525 2892 ft 185 kts 107°
2026-05-08 13:19 54.35114 18.57614 3346 ft 197 kts 108°
2026-05-08 13:19 54.34562 18.59847 3760 ft 211 kts 108°
2026-05-08 13:19 54.33970 18.62141 4287 ft 219 kts 113°
2026-05-08 13:19 54.32972 18.64183 4837 ft 236 kts 142°
2026-05-08 13:20 54.31420 18.65177 5602 ft 245 kts 169°
2026-05-08 13:20 54.29664 18.65144 6080 ft 265 kts 188°
2026-05-08 13:20 54.27865 18.64147 6583 ft 281 kts 200°
2026-05-08 13:20 54.26059 18.62775 7266 ft 287 kts 202°
2026-05-08 13:21 54.24204 18.61607 8003 ft 287 kts 188°
2026-05-08 13:21 54.22249 18.61347 8796 ft 284 kts 176°
2026-05-08 13:21 54.20246 18.61502 9498 ft 287 kts 174°
2026-05-08 13:21 54.18273 18.61676 10202 ft 290 kts 175°
2026-05-08 13:22 54.16214 18.61774 10695 ft 302 kts 177°
2026-05-08 13:22 54.14077 18.61799 11082 ft 316 kts 178°
2026-05-08 13:22 54.11846 18.61786 11418 ft 331 kts 179°
2026-05-08 13:22 54.09466 18.61758 11730 ft 347 kts 179°
2026-05-08 13:23 54.07046 18.61729 12310 ft 354 kts 179°
2026-05-08 13:23 54.04574 18.61702 12963 ft 358 kts 179°
2026-05-08 13:23 54.02079 18.61679 13645 ft 361 kts 179°
2026-05-08 13:23 53.99589 18.61667 14316 ft 363 kts 179°
2026-05-08 13:24 53.97068 18.61654 14988 ft 366 kts 179°
2026-05-08 13:24 53.94542 18.61636 15660 ft 368 kts 179°
2026-05-08 13:24 53.91963 18.61618 16344 ft 369 kts 179°
2026-05-08 13:24 53.89409 18.61602 16931 ft 373 kts 179°
2026-05-08 13:25 53.86827 18.61585 17515 ft 376 kts 179°
2026-05-08 13:25 53.84209 18.61567 18107 ft 379 kts 180°
2026-05-08 13:25 53.81590 18.61548 18758 ft 379 kts 180°
2026-05-08 13:25 53.78931 18.61560 19337 ft 382 kts 178°
2026-05-08 13:26 53.76302 18.61840 19908 ft 384 kts 173°
2026-05-08 13:26 53.73681 18.62736 20492 ft 385 kts 164°
2026-05-08 13:26 53.71141 18.64174 21020 ft 388 kts 159°
2026-05-08 13:26 53.68667 18.65868 21541 ft 391 kts 157°
2026-05-08 13:27 53.66165 18.67707 22078 ft 393 kts 157°
2026-05-08 13:27 53.63658 18.69590 22557 ft 396 kts 157°
2026-05-08 13:27 53.61136 18.71481 23080 ft 398 kts 157°
2026-05-08 13:27 53.58615 18.73356 23520 ft 401 kts 157°
2026-05-08 13:28 53.56035 18.75255 23985 ft 404 kts 158°
2026-05-08 13:28 53.53467 18.77130 24366 ft 409 kts 158°
2026-05-08 13:28 53.50810 18.78965 24800 ft 411 kts 160°
2026-05-08 13:28 53.48116 18.80543 25264 ft 412 kts 163°
2026-05-08 13:29 53.45379 18.81988 25650 ft 415 kts 164°
2026-05-08 13:29 53.42620 18.83387 25984 ft 419 kts 164°
2026-05-08 13:29 53.39836 18.84790 26434 ft 420 kts 164°
2026-05-08 13:29 53.37040 18.86207 26736 ft 424 kts 164°
2026-05-08 13:30 53.34203 18.87657 27105 ft 427 kts 164°
2026-05-08 13:30 53.31379 18.89111 27462 ft 429 kts 164°
2026-05-08 13:30 53.28529 18.90587 27815 ft 432 kts 164°
2026-05-08 13:30 53.25672 18.92072 28166 ft 434 kts 164°
2026-05-08 13:31 53.22762 18.93586 28467 ft 437 kts 164°
2026-05-08 13:31 53.19875 18.95089 28780 ft 440 kts 163°
2026-05-08 13:31 53.16936 18.96618 29065 ft 442 kts 163°
2026-05-08 13:31 53.14002 18.98143 29310 ft 446 kts 163°
2026-05-08 13:32 53.11034 18.99683 29744 ft 445 kts 163°
2026-05-08 13:32 53.08106 19.01201 29941 ft 450 kts 163°
2026-05-08 13:32 53.05101 19.02758 30185 ft 452 kts 163°
2026-05-08 13:32 53.02060 19.04331 30427 ft 455 kts 163°
2026-05-08 13:33 52.99071 19.05875 30839 ft 453 kts 163°
2026-05-08 13:33 52.96041 19.07439 31245 ft 451 kts 163°
2026-05-08 13:33 52.93079 19.08966 31565 ft 451 kts 163°
2026-05-08 13:33 52.90078 19.10510 31869 ft 451 kts 163°
2026-05-08 13:34 52.87103 19.12037 32229 ft 449 kts 164°
2026-05-08 13:34 52.84151 19.13552 32449 ft 450 kts 164°
2026-05-08 13:34 52.81158 19.15085 32679 ft 450 kts 164°
2026-05-08 13:34 52.78152 19.16623 32898 ft 450 kts 164°
2026-05-08 13:35 52.75185 19.18137 33092 ft 451 kts 164°
2026-05-08 13:35 52.72191 19.19663 33283 ft 452 kts 164°
2026-05-08 13:35 52.69196 19.21188 33487 ft 452 kts 165°
2026-05-08 13:35 52.66199 19.22712 33692 ft 452 kts 164°
2026-05-08 13:36 52.63208 19.24229 33917 ft 451 kts 165°
2026-05-08 13:36 52.60218 19.25745 34185 ft 450 kts 164°
2026-05-08 13:36 52.57237 19.27254 34386 ft 451 kts 165°
2026-05-08 13:36 52.54223 19.28777 34635 ft 450 kts 165°
2026-05-08 13:37 52.51241 19.30282 34861 ft 450 kts 165°
2026-05-08 13:37 52.48241 19.31792 35078 ft 450 kts 165°
2026-05-08 13:37 52.45251 19.33297 35289 ft 450 kts 165°
2026-05-08 13:37 52.42291 19.34784 35468 ft 450 kts 165°
2026-05-08 13:38 52.39286 19.36293 35717 ft 448 kts 165°
2026-05-08 13:38 52.36290 19.37794 35866 ft 450 kts 165°
2026-05-08 13:38 52.33313 19.39283 36040 ft 450 kts 165°
2026-05-08 13:38 52.30350 19.40764 36189 ft 450 kts 165°
2026-05-08 13:39 52.27349 19.42262 36367 ft 450 kts 165°
2026-05-08 13:39 52.24361 19.43752 36509 ft 451 kts 165°
2026-05-08 13:39 52.21359 19.45245 36679 ft 451 kts 165°
2026-05-08 13:39 52.18387 19.46723 36835 ft 451 kts 165°
2026-05-08 13:40 52.15389 19.48210 36993 ft 451 kts 165°
2026-05-08 13:40 52.12379 19.49701 37118 ft 451 kts 165°
2026-05-08 13:40 52.09378 19.51185 37254 ft 452 kts 165°
2026-05-08 13:40 52.06370 19.52671 37415 ft 451 kts 165°
2026-05-08 13:41 52.00384 19.55621 37651 ft 452 kts 165°
2026-05-08 13:41 51.97386 19.57097 37804 ft 451 kts 165°
2026-05-08 13:41 51.94401 19.58565 37916 ft 451 kts 165°
2026-05-08 13:42 51.91408 19.60036 38055 ft 451 kts 165°
2026-05-08 13:42 51.88388 19.61516 38091 ft 452 kts 165°
2026-05-08 13:42 51.82386 19.64447 38103 ft 453 kts 165°
2026-05-08 13:43 51.76378 19.67438 38096 ft 452 kts 165°
2026-05-08 13:43 51.70413 19.70599 38101 ft 452 kts 164°
2026-05-08 13:44 51.64476 19.73774 38094 ft 452 kts 164°
2026-05-08 13:44 51.58510 19.76927 38089 ft 451 kts 164°
2026-05-08 13:45 51.52547 19.80055 38091 ft 451 kts 165°
2026-05-08 13:45 51.46567 19.83191 38088 ft 451 kts 165°
2026-05-08 13:46 51.40623 19.86304 38088 ft 451 kts 165°
2026-05-08 13:46 51.34675 19.89399 38081 ft 452 kts 165°
2026-05-08 13:47 51.28713 19.92494 38083 ft 452 kts 165°
2026-05-08 13:47 51.22757 19.95576 38078 ft 452 kts 165°
2026-05-08 13:48 51.16781 19.98659 38081 ft 452 kts 165°
2026-05-08 13:48 51.10759 20.01747 38075 ft 452 kts 165°
2026-05-08 13:49 51.04786 20.04805 38078 ft 451 kts 165°
2026-05-08 13:49 50.98802 20.07859 38074 ft 452 kts 165°
2026-05-08 13:50 50.92807 20.10908 38078 ft 453 kts 165°
2026-05-08 13:50 50.86811 20.13952 38082 ft 453 kts 165°
2026-05-08 13:51 50.80792 20.17003 38069 ft 453 kts 165°
2026-05-08 13:51 50.74760 20.20053 38078 ft 454 kts 165°
2026-05-08 13:52 50.68767 20.23076 38086 ft 453 kts 165°
2026-05-08 13:52 50.62756 20.26139 38082 ft 453 kts 164°
2026-05-08 13:53 50.56840 20.29546 38083 ft 455 kts 162°
2026-05-08 13:53 50.50966 20.33099 38083 ft 454 kts 162°
2026-05-08 13:54 50.45061 20.36640 38077 ft 455 kts 162°
2026-05-08 13:54 50.39151 20.40136 38083 ft 455 kts 162°
2026-05-08 13:55 50.33216 20.43616 38078 ft 456 kts 163°
2026-05-08 13:56 50.24311 20.48812 38078 ft 455 kts 163°
2026-05-08 13:56 50.18373 20.52262 38083 ft 456 kts 163°
2026-05-08 13:57 50.12450 20.55698 38086 ft 455 kts 163°
2026-05-08 13:57 50.06506 20.59076 38079 ft 455 kts 163°
2026-05-08 13:58 50.00516 20.62296 38059 ft 454 kts 164°
2026-05-08 13:58 49.94539 20.65466 38051 ft 455 kts 165°
2026-05-08 13:59 49.88531 20.68658 38082 ft 456 kts 165°
2026-05-08 13:59 49.82527 20.71853 38077 ft 456 kts 165°
2026-05-08 14:00 49.76546 20.75037 38078 ft 455 kts 165°
2026-05-08 14:00 49.70553 20.78223 38071 ft 456 kts 165°
2026-05-08 14:01 49.64578 20.81396 38073 ft 457 kts 165°
2026-05-08 14:01 49.58567 20.84581 38070 ft 456 kts 165°
2026-05-08 14:02 49.52567 20.87749 38060 ft 455 kts 165°
2026-05-08 14:02 49.46577 20.90899 38061 ft 455 kts 165°
2026-05-08 14:03 49.40585 20.94037 38061 ft 456 kts 165°
2026-05-08 14:03 49.34578 20.97177 38058 ft 456 kts 165°
2026-05-08 14:04 49.28598 21.00303 38049 ft 456 kts 165°
2026-05-08 14:04 49.22554 21.03449 38051 ft 457 kts 165°
2026-05-08 14:05 49.16558 21.06566 38053 ft 457 kts 165°
2026-05-08 14:05 49.10693 21.10374 38046 ft 462 kts 155°
2026-05-08 14:06 49.05212 21.15570 38049 ft 466 kts 149°
2026-05-08 14:06 48.99886 21.21252 38047 ft 466 kts 148°
2026-05-08 14:07 48.94649 21.26891 38047 ft 466 kts 149°
2026-05-08 14:07 48.89338 21.32521 38050 ft 466 kts 149°
2026-05-08 14:08 48.83980 21.38146 38050 ft 464 kts 149°
2026-05-08 14:08 48.78657 21.43693 38051 ft 464 kts 150°
2026-05-08 14:09 48.73331 21.49208 38056 ft 465 kts 150°
2026-05-08 14:09 48.68028 21.54685 38051 ft 464 kts 150°
2026-05-08 14:10 48.62668 21.60203 38060 ft 464 kts 150°
2026-05-08 14:10 48.57337 21.65684 38048 ft 464 kts 151°
2026-05-08 14:11 48.52017 21.71145 38032 ft 461 kts 150°
2026-05-08 14:11 48.46696 21.76582 38051 ft 464 kts 151°
2026-05-08 14:12 48.41372 21.82011 38041 ft 462 kts 151°
2026-05-08 14:12 48.36023 21.87454 38022 ft 462 kts 151°
2026-05-08 14:13 48.30736 21.92816 38034 ft 462 kts 151°
2026-05-08 14:13 48.25377 21.98242 38034 ft 462 kts 151°
2026-05-08 14:14 48.20068 22.03602 38060 ft 462 kts 152°
2026-05-08 14:14 48.14706 22.08994 38033 ft 462 kts 151°
2026-05-08 14:15 48.09401 22.14323 38018 ft 461 kts 152°
2026-05-08 14:15 48.04068 22.19665 38026 ft 462 kts 152°
2026-05-08 14:16 47.98722 22.25005 38020 ft 463 kts 152°
2026-05-08 14:16 47.93413 22.30297 38018 ft 462 kts 152°
2026-05-08 14:17 47.88040 22.35639 38017 ft 463 kts 152°
2026-05-08 14:17 47.82705 22.40927 38011 ft 462 kts 152°
2026-05-08 14:18 47.77291 22.46128 38013 ft 459 kts 155°
2026-05-08 14:18 47.71704 22.50600 38006 ft 456 kts 158°
2026-05-08 14:19 47.66017 22.54889 38010 ft 456 kts 158°
2026-05-08 14:19 47.60386 22.59155 38013 ft 455 kts 158°
2026-05-08 14:20 47.54758 22.63467 38012 ft 457 kts 158°
2026-05-08 14:20 47.49128 22.67800 38026 ft 457 kts 159°
2026-05-08 14:21 47.43491 22.72145 38013 ft 454 kts 158°
2026-05-08 14:21 47.37890 22.76461 38013 ft 455 kts 158°
2026-05-08 14:22 47.32292 22.80765 38023 ft 455 kts 158°
2026-05-08 14:22 47.26704 22.85052 38029 ft 453 kts 158°
2026-05-08 14:23 47.21111 22.89331 38030 ft 455 kts 158°
2026-05-08 14:23 47.15492 22.93624 38038 ft 452 kts 158°
2026-05-08 14:24 47.09920 22.97870 38036 ft 453 kts 158°
2026-05-08 14:24 47.04315 23.02131 38049 ft 453 kts 158°
2026-05-08 14:25 46.98723 23.06369 38037 ft 452 kts 158°
2026-05-08 14:25 46.93135 23.10591 38038 ft 453 kts 158°
2026-05-08 14:26 46.87525 23.14822 38039 ft 454 kts 158°
2026-05-08 14:26 46.81931 23.19034 38044 ft 452 kts 158°
2026-05-08 14:27 46.76346 23.23231 38046 ft 452 kts 158°
2026-05-08 14:27 46.70731 23.27439 38053 ft 452 kts 158°
2026-05-08 14:28 46.65139 23.31620 38048 ft 453 kts 158°
2026-05-08 14:28 46.59536 23.35805 38053 ft 452 kts 158°
2026-05-08 14:29 46.53936 23.39970 38052 ft 452 kts 158°
2026-05-08 14:29 46.48331 23.44128 38040 ft 452 kts 158°
2026-05-08 14:30 46.42759 23.48256 38030 ft 452 kts 158°
2026-05-08 14:30 46.37132 23.52410 38024 ft 452 kts 158°
2026-05-08 14:31 46.31538 23.56530 38012 ft 451 kts 158°
2026-05-08 14:31 46.25963 23.60626 38004 ft 452 kts 158°
2026-05-08 14:32 46.17571 23.66779 37986 ft 451 kts 159°
2026-05-08 14:32 46.11985 23.70867 37983 ft 449 kts 159°
2026-05-08 14:33 46.06415 23.74931 37987 ft 450 kts 159°
2026-05-08 14:33 46.00827 23.78999 37988 ft 451 kts 159°
2026-05-08 14:34 45.95232 23.83063 37994 ft 450 kts 159°
2026-05-08 14:34 45.89665 23.87095 38000 ft 451 kts 158°
2026-05-08 14:35 45.84018 23.91177 38002 ft 451 kts 158°
2026-05-08 14:35 45.78444 23.95197 38008 ft 450 kts 159°
2026-05-08 14:36 45.72877 23.99204 38018 ft 449 kts 159°
2026-05-08 14:36 45.67239 24.03249 38022 ft 450 kts 158°
2026-05-08 14:37 45.61666 24.07240 38032 ft 449 kts 158°
2026-05-08 14:37 45.56070 24.11240 38035 ft 449 kts 158°
2026-05-08 14:38 45.50455 24.15240 38045 ft 450 kts 158°
2026-05-08 14:38 45.44872 24.19211 38040 ft 450 kts 158°
2026-05-08 14:39 45.39271 24.23190 38036 ft 449 kts 158°
2026-05-08 14:39 45.33667 24.27159 38034 ft 449 kts 158°
2026-05-08 14:40 45.28096 24.31096 38028 ft 448 kts 158°
2026-05-08 14:40 45.22504 24.35037 38023 ft 449 kts 158°
2026-05-08 14:41 45.16885 24.38989 38021 ft 450 kts 158°
2026-05-08 14:41 45.11302 24.42909 38017 ft 449 kts 158°
2026-05-08 14:42 45.05732 24.46811 38010 ft 448 kts 158°
2026-05-08 14:42 45.00121 24.50733 38012 ft 449 kts 158°
2026-05-08 14:43 44.94519 24.54642 38009 ft 449 kts 158°
2026-05-08 14:43 44.88917 24.58543 38000 ft 448 kts 158°
2026-05-08 14:44 44.83341 24.62412 38001 ft 448 kts 158°
2026-05-08 14:44 44.77739 24.66293 38000 ft 448 kts 158°
2026-05-08 14:45 44.72167 24.70147 37985 ft 447 kts 158°
2026-05-08 14:45 44.66594 24.73990 37978 ft 449 kts 158°
2026-05-08 14:46 44.60994 24.77844 37981 ft 448 kts 158°
2026-05-08 14:46 44.55387 24.81694 37978 ft 449 kts 158°
2026-05-08 14:47 44.49714 24.85582 37967 ft 449 kts 158°
2026-05-08 14:47 44.44109 24.89416 37968 ft 447 kts 158°
2026-05-08 14:48 44.38490 24.93252 37955 ft 448 kts 158°
2026-05-08 14:48 44.32930 24.97038 37973 ft 448 kts 158°
2026-05-08 14:49 44.27316 25.00853 37965 ft 448 kts 158°
2026-05-08 14:49 44.21697 25.04662 37964 ft 448 kts 158°
2026-05-08 14:50 44.16072 25.08472 37956 ft 449 kts 158°
2026-05-08 14:50 44.10490 25.12245 37955 ft 448 kts 158°
2026-05-08 14:51 44.04850 25.16042 37957 ft 449 kts 158°
2026-05-08 14:51 43.99229 25.19828 37950 ft 449 kts 158°
2026-05-08 14:52 43.90796 25.25479 37947 ft 448 kts 158°
2026-05-08 14:53 43.85152 25.29246 37949 ft 449 kts 158°
2026-05-08 14:53 43.79522 25.33002 37953 ft 449 kts 158°
2026-05-08 14:54 43.73896 25.36747 37952 ft 449 kts 158°
2026-05-08 14:54 43.68257 25.40489 37954 ft 449 kts 158°
2026-05-08 14:55 43.62638 25.44215 37953 ft 450 kts 158°
2026-05-08 14:55 43.56975 25.47967 37954 ft 449 kts 158°
2026-05-08 14:56 43.51367 25.51672 37958 ft 448 kts 158°
2026-05-08 14:56 43.45695 25.55412 37965 ft 450 kts 158°
2026-05-08 14:57 43.40063 25.59116 37968 ft 449 kts 158°
2026-05-08 14:57 43.34399 25.62835 37971 ft 451 kts 158°
2026-05-08 14:58 43.28727 25.66549 37970 ft 450 kts 159°
2026-05-08 14:58 43.23069 25.70245 37982 ft 451 kts 159°
2026-05-08 14:59 43.17392 25.73945 37981 ft 451 kts 159°
2026-05-08 14:59 43.08896 25.79472 37979 ft 451 kts 159°
2026-05-08 15:00 43.03254 25.83132 37982 ft 451 kts 159°
2026-05-08 15:00 42.97551 25.86819 37982 ft 451 kts 159°
2026-05-08 15:01 42.91900 25.90468 38004 ft 452 kts 159°
2026-05-08 15:01 42.86229 25.94124 38014 ft 451 kts 159°
2026-05-08 15:02 42.80526 25.97799 38028 ft 452 kts 159°
2026-05-08 15:02 42.74875 26.01433 38047 ft 450 kts 159°
2026-05-08 15:03 42.69179 26.05081 38048 ft 452 kts 159°
2026-05-08 15:03 42.63525 26.08697 38038 ft 450 kts 159°
2026-05-08 15:04 42.57890 26.12304 38035 ft 451 kts 159°
2026-05-08 15:04 42.52198 26.15939 38031 ft 452 kts 159°
2026-05-08 15:05 42.46516 26.19542 38040 ft 452 kts 159°
2026-05-08 15:05 42.40817 26.23141 38034 ft 451 kts 159°
2026-05-08 15:06 42.35126 26.26739 38039 ft 452 kts 159°
2026-05-08 15:06 42.29430 26.30341 38032 ft 452 kts 159°
2026-05-08 15:07 42.23763 26.33922 38034 ft 451 kts 159°
2026-05-08 15:07 42.18096 26.37484 38030 ft 452 kts 159°
2026-05-08 15:08 42.13312 26.40489 38028 ft 454 kts 159°
2026-05-08 15:08 42.06685 26.44643 38034 ft 452 kts 159°
2026-05-08 15:09 42.00973 26.48216 38038 ft 452 kts 159°
2026-05-08 15:09 41.95292 26.51765 38031 ft 452 kts 159°
2026-05-08 15:10 41.89584 26.55340 38033 ft 453 kts 158°
2026-05-08 15:10 41.84079 26.59585 38034 ft 458 kts 150°
2026-05-08 15:11 41.78831 26.64456 38032 ft 461 kts 148°
2026-05-08 15:11 41.73646 26.69458 38030 ft 461 kts 148°
2026-05-08 15:12 41.68465 26.74428 38024 ft 461 kts 148°
2026-05-08 15:12 41.63239 26.79386 38038 ft 462 kts 148°
2026-05-08 15:13 41.57975 26.84342 38016 ft 461 kts 149°
2026-05-08 15:13 41.52761 26.89232 38030 ft 462 kts 149°
2026-05-08 15:14 41.47504 26.94145 38028 ft 462 kts 149°
2026-05-08 15:14 41.42241 26.99053 38028 ft 462 kts 148°
2026-05-08 15:15 41.36940 27.03987 38034 ft 464 kts 149°
2026-05-08 15:15 41.31683 27.08873 38031 ft 464 kts 148°
2026-05-08 15:16 41.26373 27.13804 38040 ft 465 kts 149°
2026-05-08 15:16 41.21087 27.18700 38033 ft 464 kts 149°
2026-05-08 15:17 41.15820 27.23563 38041 ft 465 kts 149°
2026-05-08 15:17 41.10530 27.28443 38034 ft 464 kts 149°
2026-05-08 15:18 41.05238 27.33311 38036 ft 464 kts 149°
2026-05-08 15:18 40.99911 27.38200 38037 ft 466 kts 148°
2026-05-08 15:19 40.94503 27.42785 38042 ft 463 kts 155°
2026-05-08 15:19 40.88684 27.46329 38044 ft 458 kts 162°
2026-05-08 15:20 40.82771 27.49358 38043 ft 458 kts 163°
2026-05-08 15:20 40.76790 27.52383 38035 ft 458 kts 163°
2026-05-08 15:21 40.73864 27.53883 38207 ft 458 kts 163°
2026-05-08 15:21 40.70854 27.55437 38033 ft 459 kts 163°
2026-05-08 15:21 40.64948 27.58510 38040 ft 459 kts 162°
2026-05-08 15:22 40.58992 27.61614 38056 ft 460 kts 162°
2026-05-08 15:22 40.53105 27.64686 38053 ft 459 kts 163°
2026-05-08 15:23 40.47165 27.67799 38054 ft 459 kts 163°
2026-05-08 15:23 40.41248 27.70923 38061 ft 459 kts 163°
2026-05-08 15:24 40.35315 27.74057 38061 ft 459 kts 163°
2026-05-08 15:24 40.29393 27.77176 38055 ft 459 kts 163°
2026-05-08 15:25 40.23471 27.80285 38051 ft 459 kts 164°
2026-05-08 15:25 40.17533 27.83391 38061 ft 460 kts 163°
2026-05-08 15:26 40.11610 27.86485 38058 ft 461 kts 164°
2026-05-08 15:26 40.05635 27.89601 38067 ft 460 kts 164°
2026-05-08 15:27 39.99698 27.92690 38066 ft 460 kts 164°
2026-05-08 15:27 39.93781 27.95768 38069 ft 458 kts 164°
2026-05-08 15:28 39.87861 27.98843 38077 ft 460 kts 164°
2026-05-08 15:28 39.81898 28.01886 38079 ft 461 kts 165°
2026-05-08 15:29 39.75879 28.04890 38090 ft 460 kts 165°
2026-05-08 15:29 39.69932 28.07844 38091 ft 463 kts 165°
2026-05-08 15:30 39.63866 28.10852 38103 ft 462 kts 165°
2026-05-08 15:30 39.57882 28.13818 38109 ft 459 kts 165°
2026-05-08 15:31 39.51943 28.16760 38109 ft 460 kts 165°
2026-05-08 15:31 39.45925 28.19740 38113 ft 462 kts 165°
2026-05-08 15:32 39.39934 28.22699 38108 ft 460 kts 165°
2026-05-08 15:32 39.33936 28.25654 38125 ft 461 kts 165°
2026-05-08 15:33 39.27925 28.28609 38120 ft 464 kts 165°
2026-05-08 15:33 39.21910 28.31553 38119 ft 463 kts 165°
2026-05-08 15:34 39.15877 28.34498 38127 ft 462 kts 165°
2026-05-08 15:34 39.09865 28.37433 38141 ft 465 kts 165°
2026-05-08 15:35 39.03784 28.40389 38145 ft 463 kts 165°
2026-05-08 15:35 38.97797 28.43366 38139 ft 465 kts 164°
2026-05-08 15:36 38.92784 28.45909 38152 ft 464 kts 164°
2026-05-08 15:36 38.85737 28.49478 38143 ft 467 kts 164°
2026-05-08 15:37 38.79696 28.52515 38143 ft 467 kts 164°
2026-05-08 15:37 38.73596 28.55570 38138 ft 468 kts 164°
2026-05-08 15:38 38.67533 28.58618 38137 ft 468 kts 164°
2026-05-08 15:38 38.61474 28.61685 38138 ft 470 kts 163°
2026-05-08 15:39 38.55606 28.65424 38153 ft 478 kts 154°
2026-05-08 15:39 38.50108 28.70129 38151 ft 480 kts 150°
2026-05-08 15:40 38.44638 28.75184 38138 ft 483 kts 149°
2026-05-08 15:40 38.39207 28.80188 38143 ft 482 kts 149°
2026-05-08 15:41 38.33715 28.85165 38127 ft 483 kts 150°
2026-05-08 15:41 38.28231 28.90065 38138 ft 483 kts 150°
2026-05-08 15:42 38.22692 28.94992 38133 ft 483 kts 150°
2026-05-08 15:42 38.17199 28.99861 38133 ft 484 kts 150°
2026-05-08 15:43 38.11636 29.04782 38118 ft 484 kts 150°
2026-05-08 15:43 38.06104 29.09673 38127 ft 486 kts 150°
2026-05-08 15:44 38.00569 29.14562 38140 ft 485 kts 150°
2026-05-08 15:44 37.95023 29.19445 38152 ft 484 kts 150°
2026-05-08 15:45 37.89521 29.24273 38156 ft 486 kts 150°
2026-05-08 15:45 37.83895 29.29199 38167 ft 487 kts 150°
2026-05-08 15:46 37.78326 29.34065 38162 ft 488 kts 150°
2026-05-08 15:46 37.72741 29.38940 38168 ft 487 kts 150°
2026-05-08 15:47 37.67200 29.43788 38191 ft 489 kts 150°
2026-05-08 15:47 37.61577 29.48693 38194 ft 488 kts 150°
2026-05-08 15:48 37.53184 29.55964 38210 ft 492 kts 150°
2026-05-08 15:49 37.47538 29.60843 38222 ft 490 kts 150°
2026-05-08 15:49 37.41970 29.65659 38223 ft 489 kts 150°
2026-05-08 15:50 37.36323 29.70536 38228 ft 493 kts 150°
2026-05-08 15:50 37.30681 29.75401 38235 ft 491 kts 151°
2026-05-08 15:51 37.25063 29.80251 38238 ft 490 kts 151°
2026-05-08 15:51 37.19415 29.85104 38256 ft 494 kts 150°
2026-05-08 15:52 37.13772 29.89943 38253 ft 494 kts 150°
2026-05-08 15:52 37.08091 29.94811 38263 ft 494 kts 150°
2026-05-08 15:53 37.02388 29.99666 38275 ft 495 kts 150°
2026-05-08 15:53 36.96682 30.04557 38270 ft 495 kts 150°
2026-05-08 15:54 36.91014 30.09414 38251 ft 496 kts 150°
2026-05-08 15:54 36.85295 30.14303 38259 ft 496 kts 150°
2026-05-08 15:55 36.79584 30.19168 38258 ft 496 kts 150°
2026-05-08 15:55 36.71015 30.26421 38257 ft 498 kts 150°
2026-05-08 15:56 36.65273 30.31260 38225 ft 499 kts 150°
2026-05-08 15:56 36.59525 30.36100 38187 ft 497 kts 150°
2026-05-08 15:57 36.53765 30.40932 38133 ft 501 kts 150°
2026-05-08 15:57 36.48042 30.45743 38098 ft 499 kts 150°
2026-05-08 15:58 36.42270 30.50590 38089 ft 502 kts 150°
2026-05-08 15:58 36.36474 30.55439 38088 ft 501 kts 150°
2026-05-08 15:59 36.30712 30.60254 38080 ft 500 kts 150°
2026-05-08 15:59 36.24920 30.65088 38079 ft 503 kts 151°
2026-05-08 16:00 36.19139 30.69898 38078 ft 501 kts 151°
2026-05-08 16:00 36.13314 30.74728 38075 ft 503 kts 151°
2026-05-08 16:01 36.07436 30.79419 38072 ft 499 kts 158°
2026-05-08 16:01 36.01035 30.82206 38075 ft 482 kts 177°
2026-05-08 16:02 35.94473 30.83142 38067 ft 474 kts 184°
2026-05-08 16:02 35.87871 30.83573 38074 ft 473 kts 185°
2026-05-08 16:03 35.81266 30.83906 38067 ft 475 kts 185°
2026-05-08 16:03 35.74675 30.84264 38076 ft 473 kts 185°
2026-05-08 16:04 35.68094 30.84636 38081 ft 475 kts 185°
2026-05-08 16:04 35.61476 30.85018 38078 ft 473 kts 185°
2026-05-08 16:05 35.54945 30.85309 38088 ft 472 kts 186°
2026-05-08 16:05 35.48328 30.85502 38091 ft 474 kts 186°
2026-05-08 16:06 35.41740 30.85693 38097 ft 475 kts 186°
2026-05-08 16:06 35.35125 30.85906 38098 ft 475 kts 186°
2026-05-08 16:07 35.28523 30.86124 38105 ft 475 kts 186°
2026-05-08 16:07 35.21900 30.86344 38101 ft 474 kts 185°
2026-05-08 16:08 35.15315 30.86561 38106 ft 473 kts 186°
2026-05-08 16:08 35.08781 30.86778 38101 ft 474 kts 186°
2026-05-08 16:09 35.03249 30.86960 38112 ft 477 kts 186°
2026-05-08 16:09 34.95496 30.87217 38111 ft 476 kts 185°
2026-05-08 16:10 34.88918 30.87445 38110 ft 473 kts 185°
2026-05-08 16:10 34.82319 30.87659 38111 ft 474 kts 185°
2026-05-08 16:11 34.75705 30.87874 38112 ft 475 kts 186°
2026-05-08 16:11 34.69067 30.88094 38110 ft 475 kts 186°
2026-05-08 16:12 34.62445 30.88311 38112 ft 475 kts 186°
2026-05-08 16:12 34.55861 30.88572 38110 ft 475 kts 185°
2026-05-08 16:13 34.49253 30.88907 38114 ft 476 kts 185°
2026-05-08 16:13 34.42630 30.89256 38108 ft 475 kts 184°
2026-05-08 16:14 34.36055 30.89595 38111 ft 474 kts 185°
2026-05-08 16:14 34.29462 30.89924 38112 ft 475 kts 185°
2026-05-08 16:15 34.22808 30.90252 38111 ft 474 kts 185°
2026-05-08 16:15 34.16218 30.90599 38111 ft 475 kts 185°
2026-05-08 16:16 34.09606 30.90974 38112 ft 474 kts 184°
2026-05-08 16:16 34.03042 30.91349 38112 ft 475 kts 185°
2026-05-08 16:17 33.97533 30.91654 38110 ft 477 kts 184°
2026-05-08 16:17 33.89825 30.92042 38112 ft 474 kts 185°
2026-05-08 16:18 33.83231 30.92285 38109 ft 473 kts 185°
2026-05-08 16:18 33.76604 30.92516 38111 ft 475 kts 185°
2026-05-08 16:19 33.69980 30.92757 38110 ft 475 kts 185°
2026-05-08 16:19 33.63417 30.93004 38112 ft 476 kts 185°
2026-05-08 16:20 33.56752 30.93255 38111 ft 477 kts 185°
2026-05-08 16:20 33.50163 30.93508 38111 ft 473 kts 185°
2026-05-08 16:21 33.43565 30.93755 38112 ft 474 kts 185°
2026-05-08 16:21 33.36951 30.93999 38112 ft 476 kts 185°
2026-05-08 16:22 33.30365 30.94245 38110 ft 476 kts 185°
2026-05-08 16:22 33.23762 30.94497 38111 ft 470 kts 185°
2026-05-08 16:23 33.17225 30.94741 38112 ft 472 kts 184°
2026-05-08 16:23 33.10648 30.94983 38111 ft 473 kts 185°
2026-05-08 16:24 33.04041 30.95458 38110 ft 475 kts 181°
2026-05-08 16:24 32.97455 30.96254 38111 ft 476 kts 180°
2026-05-08 16:25 32.90877 30.97072 38111 ft 477 kts 180°
2026-05-08 16:25 32.84295 30.97856 38111 ft 474 kts 180°
2026-05-08 16:26 32.77755 30.98604 38111 ft 476 kts 180°
2026-05-08 16:26 32.71149 30.99346 38110 ft 474 kts 180°
2026-05-08 16:27 32.64565 31.00079 38112 ft 477 kts 180°
2026-05-08 16:27 32.57960 31.00811 38110 ft 476 kts 180°
2026-05-08 16:28 32.51344 31.01546 38111 ft 477 kts 180°
2026-05-08 16:28 32.44703 31.02283 38111 ft 477 kts 180°
2026-05-08 16:29 32.38101 31.03014 38111 ft 475 kts 180°
2026-05-08 16:29 32.31535 31.03740 38110 ft 477 kts 180°
2026-05-08 16:30 32.24899 31.04468 38105 ft 479 kts 180°
2026-05-08 16:30 32.18230 31.05201 38095 ft 484 kts 180°
2026-05-08 16:31 32.11465 31.05947 38089 ft 486 kts 180°
2026-05-08 16:31 32.04752 31.06684 38090 ft 485 kts 180°
2026-05-08 16:32 31.98016 31.07420 38088 ft 483 kts 180°
2026-05-08 16:32 31.91309 31.08142 38087 ft 483 kts 180°
2026-05-08 16:33 31.84623 31.08857 38085 ft 484 kts 180°
2026-05-08 16:33 31.77894 31.09576 38083 ft 484 kts 180°
2026-05-08 16:34 31.71209 31.10292 38081 ft 484 kts 179°
2026-05-08 16:34 31.64481 31.11013 38077 ft 484 kts 179°
2026-05-08 16:35 31.57772 31.11733 38078 ft 483 kts 180°
2026-05-08 16:35 31.51062 31.12479 38069 ft 485 kts 178°
2026-05-08 16:36 31.44355 31.13616 38068 ft 487 kts 175°
2026-05-08 16:36 31.37658 31.14963 38064 ft 488 kts 174°
2026-05-08 16:37 31.30946 31.16304 38065 ft 488 kts 175°
2026-05-08 16:37 31.24256 31.17599 38059 ft 486 kts 174°
2026-05-08 16:38 31.17532 31.18869 38054 ft 488 kts 175°
2026-05-08 16:38 31.10757 31.20134 38060 ft 486 kts 175°
2026-05-08 16:39 31.04056 31.21380 38055 ft 488 kts 175°
2026-05-08 16:39 30.97327 31.22633 38050 ft 486 kts 175°
2026-05-08 16:40 30.90641 31.23875 38046 ft 486 kts 175°
2026-05-08 16:40 30.83916 31.25120 38045 ft 486 kts 174°
2026-05-08 16:41 30.77231 31.26355 38039 ft 486 kts 174°
2026-05-08 16:42 30.67177 31.28215 38043 ft 487 kts 175°
2026-05-08 16:42 30.60479 31.29453 38038 ft 486 kts 174°
2026-05-08 16:43 30.53725 31.30695 38039 ft 487 kts 175°
2026-05-08 16:43 30.47026 31.31925 38035 ft 487 kts 174°
2026-05-08 16:44 30.40331 31.33153 38038 ft 488 kts 174°
2026-05-08 16:44 30.33589 31.34391 38032 ft 487 kts 174°
2026-05-08 16:45 30.26903 31.35616 38036 ft 486 kts 174°
2026-05-08 16:45 30.20215 31.36838 38034 ft 486 kts 174°
2026-05-08 16:46 30.13481 31.38112 38037 ft 487 kts 171°
2026-05-08 16:46 30.07070 31.40691 38045 ft 494 kts 151°
2026-05-08 16:47 30.01316 31.45118 38050 ft 495 kts 143°
2026-05-08 16:47 29.95817 31.49950 38049 ft 496 kts 142°
2026-05-08 16:48 29.90348 31.54803 38054 ft 494 kts 143°
2026-05-08 16:48 29.84864 31.59573 38050 ft 496 kts 143°
2026-05-08 16:49 29.79347 31.64301 38056 ft 496 kts 143°
2026-05-08 16:49 29.73774 31.69040 38059 ft 496 kts 144°
2026-05-08 16:50 29.68237 31.73743 38061 ft 496 kts 144°
2026-05-08 16:50 29.62642 31.78480 38062 ft 495 kts 144°
2026-05-08 16:51 29.57068 31.83187 38064 ft 496 kts 144°
2026-05-08 16:51 29.51501 31.87883 38062 ft 497 kts 144°
2026-05-08 16:52 29.45908 31.92600 38068 ft 495 kts 144°
2026-05-08 16:52 29.40358 31.97276 38067 ft 496 kts 144°
2026-05-08 16:53 29.32033 32.04271 38067 ft 496 kts 144°
2026-05-08 16:53 29.26410 32.08988 38068 ft 497 kts 144°
2026-05-08 16:54 29.20869 32.13631 38064 ft 496 kts 144°
2026-05-08 16:54 29.15239 32.18341 38054 ft 497 kts 144°
2026-05-08 16:55 29.09647 32.23009 38029 ft 496 kts 144°
2026-05-08 16:55 29.04082 32.27651 38009 ft 497 kts 144°
2026-05-08 16:56 28.98481 32.32320 37987 ft 496 kts 144°
2026-05-08 16:56 28.92862 32.36988 37997 ft 496 kts 144°
2026-05-08 16:57 28.87293 32.41622 38013 ft 495 kts 144°
2026-05-08 16:57 28.81696 32.46270 38023 ft 496 kts 144°
2026-05-08 16:58 28.76111 32.50897 38021 ft 496 kts 144°
2026-05-08 16:58 28.70566 32.55488 38018 ft 495 kts 144°
2026-05-08 16:59 28.64978 32.60106 38013 ft 495 kts 144°
2026-05-08 16:59 28.59409 32.64703 38009 ft 495 kts 144°
2026-05-08 17:00 28.53819 32.69310 38002 ft 495 kts 144°
2026-05-08 17:00 28.48235 32.73903 37999 ft 495 kts 145°
2026-05-08 17:01 28.42626 32.78521 37995 ft 495 kts 144°
2026-05-08 17:01 28.37018 32.83127 37993 ft 496 kts 144°
2026-05-08 17:02 28.31426 32.87717 37990 ft 495 kts 144°
2026-05-08 17:02 28.25831 32.92302 37988 ft 494 kts 144°
2026-05-08 17:03 28.20217 32.96889 37985 ft 494 kts 144°
2026-05-08 17:03 28.14632 33.01445 37977 ft 494 kts 144°
2026-05-08 17:04 28.09084 33.05974 37976 ft 494 kts 144°
2026-05-08 17:04 28.03459 33.10555 37972 ft 494 kts 144°
2026-05-08 17:05 27.97898 33.15076 37970 ft 494 kts 144°
2026-05-08 17:05 27.92280 33.19638 37965 ft 493 kts 144°
2026-05-08 17:06 27.86706 33.24157 37959 ft 493 kts 144°
2026-05-08 17:06 27.81151 33.28657 37951 ft 495 kts 144°
2026-05-08 17:07 27.75552 33.33188 37949 ft 493 kts 144°
2026-05-08 17:07 27.69961 33.37707 37939 ft 493 kts 144°
2026-05-08 17:08 27.64388 33.42205 37941 ft 493 kts 144°
2026-05-08 17:08 27.58785 33.46723 37927 ft 493 kts 144°
2026-05-08 17:09 27.53194 33.51230 37931 ft 493 kts 144°
2026-05-08 17:09 27.47642 33.55697 37934 ft 493 kts 144°
2026-05-08 17:10 27.42042 33.60192 37921 ft 494 kts 144°
2026-05-08 17:10 27.36404 33.64713 37909 ft 493 kts 143°
2026-05-08 17:11 27.30848 33.69157 37905 ft 493 kts 144°
2026-05-08 17:11 27.25219 33.73660 37900 ft 492 kts 144°
2026-05-08 17:12 27.19661 33.78157 37899 ft 492 kts 142°
2026-05-08 17:12 27.14465 33.83196 37901 ft 492 kts 135°
2026-05-08 17:13 27.09607 33.88551 37895 ft 491 kts 133°
2026-05-08 17:13 27.04779 33.94046 37893 ft 494 kts 133°
2026-05-08 17:14 26.99945 33.99521 37887 ft 493 kts 133°
2026-05-08 17:14 26.95107 34.04955 37883 ft 491 kts 134°
2026-05-08 17:15 26.90262 34.10365 37882 ft 491 kts 134°
2026-05-08 17:15 26.85280 34.15662 37880 ft 492 kts 140°
2026-05-08 17:16 26.82464 34.17828 37876 ft 493 kts 153°
2026-05-08 17:16 26.79323 34.19335 37889 ft 492 kts 162°
2026-05-08 17:16 26.72768 34.21526 37729 ft 488 kts 167°
2026-05-08 17:17 26.69505 34.22482 37259 ft 482 kts 167°
2026-05-08 17:17 26.66260 34.23420 36711 ft 479 kts 167°
2026-05-08 17:17 26.63015 34.24364 36051 ft 480 kts 167°
2026-05-08 17:17 26.59804 34.25311 35357 ft 480 kts 167°
2026-05-08 17:18 26.56557 34.26282 34540 ft 482 kts 166°
2026-05-08 17:18 26.53318 34.27262 33683 ft 485 kts 166°
2026-05-08 17:18 26.50055 34.28260 32844 ft 488 kts 166°
2026-05-08 17:18 26.46759 34.29274 31957 ft 492 kts 166°
2026-05-08 17:19 26.43462 34.30292 31047 ft 496 kts 166°
2026-05-08 17:19 26.40137 34.31320 30091 ft 501 kts 166°
2026-05-08 17:19 26.36733 34.32375 29319 ft 500 kts 166°
2026-05-08 17:19 26.33406 34.33406 28672 ft 497 kts 165°
2026-05-08 17:20 26.30060 34.34445 27960 ft 495 kts 166°
2026-05-08 17:20 26.26781 34.35461 27237 ft 493 kts 165°
2026-05-08 17:20 26.23484 34.36483 26506 ft 491 kts 165°
2026-05-08 17:20 26.20206 34.37498 25774 ft 490 kts 165°
2026-05-08 17:21 26.16938 34.38510 25030 ft 488 kts 166°
2026-05-08 17:21 26.13630 34.39532 24276 ft 486 kts 165°
2026-05-08 17:21 26.10389 34.40532 23514 ft 482 kts 166°
2026-05-08 17:21 26.07211 34.41512 22790 ft 471 kts 166°
2026-05-08 17:22 26.04087 34.42477 22092 ft 460 kts 165°
2026-05-08 17:22 26.01076 34.43480 21391 ft 451 kts 163°
2026-05-08 17:22 25.98176 34.44689 20712 ft 442 kts 156°
2026-05-08 17:22 25.95418 34.46183 20034 ft 433 kts 152°
2026-05-08 17:23 25.92838 34.47806 19341 ft 425 kts 149°
2026-05-08 17:23 25.90327 34.49498 18653 ft 417 kts 148°
2026-05-08 17:23 25.87892 34.51195 17997 ft 417 kts 147°
2026-05-08 17:23 25.85523 34.53014 17317 ft 418 kts 143°
2026-05-08 17:24 25.83168 34.54996 16620 ft 418 kts 142°
2026-05-08 17:24 25.80886 34.56985 15942 ft 418 kts 141°
2026-05-08 17:24 25.78637 34.58950 15237 ft 413 kts 141°
2026-05-08 17:24 25.76398 34.60886 14575 ft 402 kts 142°
2026-05-08 17:25 25.74219 34.62746 13907 ft 392 kts 142°
2026-05-08 17:25 25.72084 34.64550 13263 ft 382 kts 142°
2026-05-08 17:25 25.69971 34.66322 12626 ft 372 kts 143°
2026-05-08 17:25 25.67942 34.68016 12011 ft 363 kts 143°
2026-05-08 17:26 25.65956 34.69671 11410 ft 354 kts 143°
2026-05-08 17:26 25.64003 34.71297 10806 ft 346 kts 143°
2026-05-08 17:26 25.62132 34.72854 10411 ft 333 kts 143°
2026-05-08 17:26 25.60331 34.74353 10337 ft 315 kts 143°
2026-05-08 17:27 25.58599 34.75795 10235 ft 303 kts 143°
2026-05-08 17:27 25.56939 34.77175 10119 ft 292 kts 143°
2026-05-08 17:27 25.55323 34.78521 9826 ft 289 kts 143°
2026-05-08 17:27 25.53727 34.79847 9431 ft 291 kts 143°
2026-05-08 17:28 25.52096 34.81203 9044 ft 291 kts 143°
2026-05-08 17:28 25.50467 34.82545 8684 ft 291 kts 145°
2026-05-08 17:28 25.48723 34.83661 8282 ft 292 kts 159°
2026-05-08 17:28 25.46731 34.83982 7920 ft 289 kts 189°
2026-05-08 17:29 25.44843 34.83324 7571 ft 285 kts 206°
2026-05-08 17:29 25.43052 34.82346 7200 ft 285 kts 208°
2026-05-08 17:29 25.41298 34.81361 6853 ft 285 kts 208°
2026-05-08 17:29 25.39498 34.80392 6495 ft 284 kts 207°
2026-05-08 17:30 25.37731 34.79477 6219 ft 280 kts 207°
2026-05-08 17:30 25.36047 34.78448 6126 ft 267 kts 217°
2026-05-08 17:30 25.34795 34.77016 6047 ft 251 kts 245°
2026-05-08 17:30 25.34384 34.75224 5981 ft 235 kts 273°
2026-05-08 17:31 25.34613 34.73494 5761 ft 231 kts 288°
2026-05-08 17:31 25.35254 34.71817 5076 ft 247 kts 307°
2026-05-08 17:31 25.36540 34.70531 4340 ft 260 kts 329°
2026-05-08 17:31 25.38150 34.69533 3572 ft 273 kts 333°
2026-05-08 17:32 25.39809 34.68541 3145 ft 260 kts 332°
2026-05-08 17:32 25.41311 34.67611 2836 ft 240 kts 332°
2026-05-08 17:32 25.42708 34.66724 2591 ft 221 kts 331°
2026-05-08 17:32 25.43986 34.65911 2367 ft 197 kts 332°
2026-05-08 17:33 25.45096 34.65209 2180 ft 172 kts 332°
2026-05-08 17:33 25.46078 34.64575 2029 ft 156 kts 332°
2026-05-08 17:33 25.46997 34.63982 1968 ft 151 kts 332°
2026-05-08 17:33 25.47933 34.63379 1806 ft 159 kts 332°
2026-05-08 17:34 25.48873 34.62779 1527 ft 154 kts 332°
2026-05-08 17:34 25.49780 34.62231 1265 ft 148 kts 335°
2026-05-08 17:34 25.49820 34.62209 1255 ft 148 kts 335°
2026-05-08 17:34 25.49894 34.62169 1239 ft 147 kts 335°
2026-05-08 17:35 25.50432 34.61836 1127 ft 142 kts 328°
2026-05-08 17:35 25.51251 34.61257 883 ft 137 kts 332°
2026-05-08 17:35 25.52064 34.60712 643 ft 139 kts 330°
2026-05-08 17:35 25.52933 34.60155 610 ft 144 kts 332°
2026-05-08 17:36 25.53790 34.59600 434 ft 140 kts 332°
2026-05-08 17:36 25.54623 34.59072 279 ft 135 kts 332°
2026-05-08 17:36 25.55322 34.58637 265 ft 75 kts 329°
2026-05-08 17:36 25.55680 34.58395 270 ft 46 kts 328°
2026-05-08 17:37 25.55896 34.58256 271 ft 30 kts 330°
2026-05-08 17:37 25.56048 34.58158 272 ft 20 kts 329°
2026-05-08 17:37 25.56119 34.58147 269 ft 5 kts 85°
2026-05-08 17:37 25.56079 34.58167 270 ft 5 kts 176°
2026-05-08 17:38 25.56049 34.58166 271 ft 4 kts 180°
2026-05-08 17:38 25.55983 34.58200 272 ft 17 kts 151°
2026-05-08 17:38 25.55872 34.58270 271 ft 18 kts 150°
2026-05-08 17:38 25.55766 34.58339 271 ft 17 kts 149°
2026-05-08 17:39 25.55663 34.58408 270 ft 17 kts 149°
2026-05-08 17:39 25.55561 34.58470 270 ft 16 kts 151°
2026-05-08 17:39 25.55483 34.58538 268 ft 12 kts 94°
2026-05-08 17:39 25.55524 34.58638 264 ft 15 kts 60°
2026-05-08 17:40 25.55585 34.58753 257 ft 19 kts 59°
2026-05-08 17:40 25.55632 34.58849 253 ft 12 kts 79°
2026-05-08 17:40 25.55590 34.58915 251 ft 8 kts 149°
2026-05-08 17:40 25.55576 34.58945 250 ft 5 kts 51°
2026-05-08 17:41 25.55596 34.58979 248 ft 5 kts 60°
2026-05-08 17:41 25.55611 34.59010 247 ft 0 kts 60°